This demonstration page uses our WeatherBlox Daily Observations layout. Learn more.

Left ArrowRight Arrow

38.20091, -84.87328

Hourly Observations for September 2, 2022

Temp ( °F °C ) Dew Point ( °F °C ) Humidity (%) Winds ( mph kmh ) Pressure ( in mb ) Visibility ( mi km ) Precip ( " mm )
12:53 am 00:53 Clear 63 17.2 61 16.1 93 93 Calm 30.06 1018 10 16 0.00 0.00
1:53 am 01:53 Clear 63 17.2 61 16.1 93 93 Calm 30.05 1018 10 16 0.00 0.00
2:53 am 02:53 Clear 63 17.2 60 15.6 90 90 NNW 3 6 30.04 1017 10 16 0.00 0.00
3:53 am 03:53 Clear 61 16.1 59 15 93 93 Calm 30.05 1018 10 16 0.00 0.00
4:53 am 04:53 Clear 61 16.1 59 15 93 93 Calm 30.04 1017 10 16 0.00 0.00
5:53 am 05:53 Clear 61 16.1 59 15 93 93 Calm 30.05 1018 10 16 0.00 0.00
6:53 am 06:53 Clear 61 16.1 59 15 93 93 Calm 30.05 1018 10 16 0.00 0.00
7:53 am 07:53 Sunny 63 17.2 61 16.1 93 93 ENE 3 6 30.07 1018 10 16 0.00 0.00
8:53 am 08:53 Sunny 69 20.6 64 17.8 84 84 E 3 6 30.08 1019 10 16 0.00 0.00
9:53 am 09:53 Sunny 73 22.8 64 17.8 73 73 VRB 3 6 30.07 1018 10 16 0.00 0.00
10:53 am 10:53 Sunny 78 25.6 66 18.9 67 67 ESE 6 9 30.07 1018 10 16 0.00 0.00
11:53 am 11:53 Mostly Sunny 80 26.7 66 18.9 62 62 S 5 7 30.08 1019 10 16 0.00 0.00
12:53 pm 12:53 Sunny 82 27.8 68 20 63 63 Calm 30.08 1019 10 16 0.00 0.00
1:53 pm 13:53 Sunny 84 28.9 69 20.6 61 61 WSW 5 7 30.06 1018 10 16 0.00 0.00
2:53 pm 14:53 Sunny 85 29.4 70 21.1 61 61 VRB 3 6 30.06 1018 10 16 0.00 0.00
3:53 pm 15:53 Sunny 85 29.4 71 21.7 63 63 SW 9 15 30.06 1018 10 16 0.00 0.00
4:53 pm 16:53 Sunny 87 30.6 67 19.4 51 51 W 7 11 30.04 1017 10 16 0.00 0.00
5:53 pm 17:53 Sunny 86 30 64 17.8 48 48 SW 8 13 30.05 1018 10 16 0.00 0.00
6:53 pm 18:53 Sunny 86 30 66 18.9 51 51 Calm 30.06 1018 10 16 0.00 0.00
7:53 pm 19:53 Sunny 79 26.1 69 20.6 72 72 Calm 30.05 1018 10 16 0.00 0.00
8:53 pm 20:53 Clear 77 25 68 20 74 74 S 6 9 30.06 1018 10 16 0.00 0.00
9:53 pm 21:53 Clear 75 23.9 68 20 79 79 ESE 5 7 30.07 1018 10 16 0.00 0.00
10:53 pm 22:53 Clear 71 21.7 68 20 90 90 Calm 30.08 1019 10 16 0.00 0.00
11:53 pm 23:53 Clear 73 22.8 68 20 84 84 Calm 30.08 1019 10 16 0.00 0.00

Powered by AerisWeather